CW6876 Weather Reports


time (UTC)temp
C
wind
direction
speed
KPH
gust
KPH
rain 1hr
cm
rain 24hr
cm
rain mn
cm
humidity
%
barometer
mb
20260901004540 21 205 0.0 0.0 0.00 0.00 0.00 90 1018.9
20260901003013 21 205 0.0 0.0 0.00 0.00 0.00 89 1018.8
20260901001622 21 205 0.0 0.0 0.00 0.00 0.00 88 1018.6
20260901000046 21 205 0.0 0.0 0.00 0.00 0.00 88 1018.5
20260831234512 21 205 0.0 0.0 0.00 0.00 0.00 87 1018.5
20260831233104 21 205 0.0 0.0 0.00 0.00 0.00 87 1018.5
20260831231550 22 205 0.0 0.0 0.00 0.00 0.00 87 1018.5
20260831230024 22 205 0.0 0.0 0.00 0.00 0.00 87 1018.8
20260831224608 22 205 0.0 0.0 0.00 0.00 0.00 87 1019.0
20260831223048 22 205 0.0 0.0 0.00 0.00 0.00 87 1019.1
20260831221534 22 205 0.0 0.0 0.00 0.00 0.00 87 1019.0
20260831220014 22 205 0.0 0.0 0.00 0.00 0.00 87 1019.2
20260831214604 22 205 0.0 0.0 0.00 0.00 0.00 87 1019.2
20260831213056 22 205 0.0 0.0 0.00 0.00 0.00 87 1019.3
20260831211524 22 205 0.0 0.0 0.00 0.00 0.00 88 1019.6
20260831210114 22 205 0.0 0.0 0.00 0.00 0.00 89 1019.6
20260831204522 22 205 0.0 0.0 0.00 0.00 0.00 88 1019.4
20260831203003 22 205 0.0 0.0 0.00 0.00 0.00 89 1019.6
20260831201547 22 205 0.0 0.0 0.00 0.00 0.00 86 1019.9
20260831200012 22 205 0.0 0.0 0.00 0.00 0.00 84 1020.1
20260831194619 22 205 0.0 0.0 0.00 0.00 0.00 86 1020.1
20260831193036 22 205 0.0 0.0 0.00 0.00 0.00 85 1020.4
20260831191535 22 205 0.0 0.0 0.00 0.00 0.00 88 1020.5
20260831190006 22 205 0.0 0.0 0.00 0.00 0.00 86 1020.8
20260831184559 22 205 0.0 0.0 0.00 0.23 0.00 83 1020.9
20260831183038 22 205 0.0 0.0 0.00 0.23 0.00 83 1021.0
20260831181516 22 205 0.0 0.0 0.00 0.23 0.00 86 1020.8
20260831180009 22 205 0.0 0.0 0.00 0.23 0.00 84 1020.8
20260831174537 23 205 0.0 0.0 0.00 0.23 0.00 80 1020.9
20260831173015 22 252 0.0 0.0 0.00 0.23 0.00 84 1021.0
20260831171610 22 252 0.0 0.0 0.00 0.23 0.00 83 1021.1
20260831170051 22 252 0.0 0.0 0.00 0.23 0.00 86 1021.1
20260831164544 22 252 0.0 0.0 0.00 0.23 0.00 81 1021.1
20260831163104 22 252 0.0 1.6 0.00 0.23 0.00 81 1021.0
20260831161531 22 160 0.0 4.8 0.00 0.23 0.00 81 1021.0
20260831160017 22 212 0.0 3.2 0.00 0.23 0.00 81 1021.1
20260831154556 22 73 0.0 1.6 0.00 0.23 0.00 82 1021.3
20260831153041 22 112 0.0 4.8 0.00 0.23 0.00 80 1021.1
20260831151508 21 89 0.0 1.6 0.00 0.23 0.00 84 1021.2
20260831150042 21 281 0.0 0.0 0.00 0.23 0.00 86 1021.3
20260831144506 21 27 0.0 0.0 0.00 0.23 0.00 88 1021.5
20260831143110 21 27 0.0 0.0 0.00 0.23 0.00 90 1021.4
20260831141540 20 27 0.0 0.0 0.00 0.23 0.00 91 1021.5
20260831140006 20 27 0.0 0.0 0.00 0.23 0.00 92 1021.4
20260831134556 20 27 0.0 0.0 0.00 0.23 0.00 93 1021.3
20260831133034 20 27 0.0 0.0 0.00 0.23 0.00 94 1021.3
20260831131503 20 29 0.0 0.0 0.00 0.23 0.00 95 1021.3
20260831130056 20 29 0.0 0.0 0.00 0.23 0.00 95 1021.3
20260831124551 19 29 0.0 0.0 0.00 0.23 0.00 95 1021.2
20260831123027 19 29 0.0 0.0 0.00 0.23 0.00 95 1021.3
20260831121516 19 29 0.0 0.0 0.00 0.23 0.00 95 1021.1
20260831120059 19 29 0.0 0.0 0.00 0.23 0.00 95 1021.2
20260831114531 19 29 0.0 0.0 0.00 0.23 0.00 95 1021.1
20260831113109 19 29 0.0 0.0 0.00 0.23 0.00 95 1021.0
20260831111537 19 0.0 0.0 0.00 0.23 0.00 95 1020.9
20260831110011 19 0.0 0.0 0.00 0.23 0.00 95 1020.7
20260831104603 19 0.0 0.0 0.00 0.23 0.00 95 1020.6
20260831103036 20 0.0 0.0 0.00 0.23 0.00 95 1020.6
20260831101556 20 0.0 0.0 0.00 0.23 0.00 95 1020.4
20260831100020 20 0.0 0.0 0.00 0.23 0.00 95 1020.3
20260831094607 20 0.0 0.0 0.00 0.23 0.00 95 1020.2
20260831093030 20 29 0.0 0.0 0.00 0.23 0.00 95 1020.0
20260831091607 20 29 0.0 0.0 0.00 0.23 0.00 95 1019.7
20260831090043 20 29 0.0 0.0 0.00 0.23 0.00 95 1020.0
20260831084534 20 29 0.0 0.0 0.00 0.23 0.00 95 1020.1
20260831083038 20 29 0.0 0.0 0.00 0.23 0.00 95 1019.9
20260831081505 20 29 0.0 0.0 0.00 0.23 0.00 95 1019.7
20260831080104 20 29 0.0 0.0 0.00 0.23 0.00 94 1019.8
20260831074547 20 29 0.0 0.0 0.00 0.23 0.00 94 1019.8
20260831073051 20 29 0.0 0.0 0.00 0.23 0.00 94 1019.9
20260831071517 20 29 0.0 0.0 0.00 0.23 0.00 94 1019.9
20260831070058 20 29 0.0 0.0 0.00 0.23 0.00 94 1020.0
20260831064541 20 29 0.0 0.0 0.00 0.23 0.00 94 1020.1
20260831063003 20 29 0.0 0.0 0.00 0.23 0.00 94 1020.2
20260831061556 20 29 0.0 0.0 0.00 0.23 0.00 94 1020.2
20260831060043 20 29 0.0 0.0 0.00 0.23 0.00 93 1020.0
20260831054613 21 29 0.0 1.6 0.00 0.23 0.00 93 1020.0
20260831053037 21 29 0.0 0.0 0.00 0.23 0.00 93 1020.0
20260831051506 21 29 0.0 0.0 0.00 0.23 0.00 93 1020.1
20260831050056 21 29 0.0 0.0 0.00 0.23 0.00 92 1020.2
20260831044520 21 29 0.0 0.0 0.00 0.23 0.00 92 1020.0
20260831043115 21 29 0.0 0.0 0.00 0.23 0.00 92 1020.1
20260831041529 21 29 0.0 0.0 0.00 0.23 0.00 92 1020.1
20260831040117 21 109 0.0 4.8 0.00 0.23 0.00 92 1020.3
20260831034543 21 173 0.0 0.0 0.00 0.23 0.23 91 1020.1
20260831033022 21 247 0.0 0.0 0.00 0.23 0.23 91 1020.2
20260831031604 21 247 0.0 0.0 0.00 0.23 0.23 91 1020.4
20260831030051 21 246 0.0 0.0 0.00 0.23 0.23 91 1020.5
20260831024530 21 158 0.0 0.0 0.00 0.23 0.23 92 1020.7
20260831023003 22 356 0.0 4.8 0.00 0.23 0.23 93 1020.9
20260831021556 22 278 1.6 8.0 0.00 0.23 0.23 94 1020.6
20260831014524 22 281 0.0 6.4 0.00 0.23 0.23 94 1020.5
20260831013011 22 149 0.0 0.0 0.00 0.23 0.23 94 1020.5
20260831011602 22 150 0.0 0.0 0.00 0.23 0.23 94 1020.4